| time (UTC) | temp F | wind direction | speed MPH | gust MPH | rain 1hr in | rain 24hr in | rain mn in | humidity % | barometer mb |
| 20260510215924 | 69 | 109 | 2.0 | 4.0 | 0.00 | 0.00 | 0.00 | 72 | 1016.1 |
| 20260510215425 | 69 | 125 | 1.0 | 5.0 | 0.00 | 0.00 | 0.00 | 72 | 1016.1 |
| 20260510215144 | 69 | 100 | 3.0 | 6.0 | 0.00 | 0.00 | 0.00 | 72 | 1016.2 |
| 20260510214425 | 69 | 86 | 2.0 | 6.0 | 0.00 | 0.00 | 0.00 | 71 | 1016.3 |
| 20260510213923 | 69 | 111 | 2.0 | 6.0 | 0.00 | 0.00 | 0.00 | 71 | 1016.4 |
| 20260510213649 | 69 | 142 | 2.0 | 6.0 | 0.00 | 0.00 | 0.00 | 71 | 1016.5 |
| 20260510212924 | 70 | 125 | 3.0 | 6.0 | 0.00 | 0.00 | 0.00 | 70 | 1016.4 |
| 20260510212424 | 70 | 130 | 3.0 | 7.0 | 0.00 | 0.00 | 0.00 | 70 | 1016.4 |
| 20260510212150 | 70 | 113 | 2.0 | 7.0 | 0.00 | 0.00 | 0.00 | 70 | 1016.3 |
| 20260510211424 | 70 | 124 | 2.0 | 7.0 | 0.00 | 0.00 | 0.00 | 68 | 1016.4 |
| 20260510210923 | 71 | 100 | 3.0 | 6.0 | 0.00 | 0.00 | 0.00 | 69 | 1016.4 |
| 20260510210423 | 71 | 104 | 3.0 | 5.0 | 0.00 | 0.00 | 0.00 | 70 | 1016.5 |
| 20260510210142 | 71 | 127 | 3.0 | 7.0 | 0.00 | 0.00 | 0.00 | 70 | 1016.5 |
| 20260510205424 | 70 | 121 | 3.0 | 7.0 | 0.00 | 0.00 | 0.00 | 70 | 1016.5 |
| 20260510204921 | 70 | 128 | 3.0 | 5.0 | 0.00 | 0.00 | 0.00 | 71 | 1016.5 |
| 20260510204423 | 70 | 106 | 3.0 | 5.0 | 0.00 | 0.00 | 0.00 | 71 | 1016.5 |
| 20260510203922 | 70 | 83 | 2.0 | 5.0 | 0.00 | 0.00 | 0.00 | 71 | 1016.5 |
| 20260510203423 | 70 | 100 | 2.0 | 9.0 | 0.00 | 0.00 | 0.00 | 72 | 1016.6 |
| 20260510202921 | 70 | 118 | 3.0 | 9.0 | 0.00 | 0.00 | 0.00 | 72 | 1016.6 |
| 20260510202422 | 69 | 104 | 3.0 | 6.0 | 0.00 | 0.00 | 0.00 | 72 | 1016.5 |
| 20260510201921 | 69 | 127 | 3.0 | 6.0 | 0.00 | 0.00 | 0.00 | 72 | 1016.6 |
| 20260510201423 | 69 | 107 | 3.0 | 5.0 | 0.00 | 0.00 | 0.00 | 75 | 1016.6 |
| 20260510200922 | 68 | 131 | 2.0 | 6.0 | 0.00 | 0.00 | 0.00 | 75 | 1016.7 |
| 20260510200422 | 68 | 134 | 2.0 | 6.0 | 0.00 | 0.00 | 0.00 | 76 | 1016.7 |
| 20260510195921 | 68 | 79 | 3.0 | 6.0 | 0.00 | 0.00 | 0.00 | 76 | 1016.7 |
| 20260510195421 | 67 | 94 | 3.0 | 5.0 | 0.00 | 0.00 | 0.00 | 77 | 1016.7 |
| 20260510194922 | 67 | 100 | 3.0 | 5.0 | 0.00 | 0.00 | 0.00 | 76 | 1016.7 |
| 20260510194421 | 67 | 90 | 2.0 | 5.0 | 0.00 | 0.00 | 0.00 | 78 | 1016.7 |
| 20260510193921 | 66 | 137 | 3.0 | 5.0 | 0.00 | 0.00 | 0.00 | 78 | 1016.7 |
| 20260510193420 | 66 | 127 | 3.0 | 5.0 | 0.00 | 0.00 | 0.00 | 79 | 1016.6 |
| 20260510192921 | 66 | 133 | 3.0 | 6.0 | 0.00 | 0.00 | 0.00 | 80 | 1016.7 |
| 20260510192420 | 66 | 104 | 2.0 | 6.0 | 0.00 | 0.00 | 0.00 | 81 | 1016.7 |
| 20260510192140 | 65 | 124 | 3.0 | 6.0 | 0.00 | 0.00 | 0.00 | 82 | 1016.6 |
| 20260510191643 | 65 | 130 | 2.0 | 6.0 | 0.00 | 0.00 | 0.00 | 84 | 1016.7 |
| 20260510190920 | 65 | 140 | 2.0 | 6.0 | 0.00 | 0.00 | 0.00 | 85 | 1016.7 |
| 20260510190643 | 64 | 109 | 2.0 | 4.0 | 0.00 | 0.00 | 0.00 | 88 | 1016.7 |
| 20260510185920 | 63 | 96 | 2.0 | 4.0 | 0.00 | 0.00 | 0.00 | 90 | 1016.8 |
| 20260510185639 | 63 | 103 | 1.0 | 5.0 | 0.00 | 0.00 | 0.00 | 92 | 1016.8 |
| 20260510184920 | 62 | 120 | 1.0 | 5.0 | 0.00 | 0.00 | 0.00 | 93 | 1017.0 |
| 20260510184419 | 62 | 141 | 1.0 | 5.0 | 0.00 | 0.00 | 0.00 | 93 | 1016.8 |
| 20260510183919 | 61 | 140 | 0.0 | 5.0 | 0.00 | 0.00 | 0.00 | 94 | 1016.9 |
| 20260510183419 | 61 | 134 | 1.0 | 3.0 | 0.00 | 0.00 | 0.00 | 95 | 1016.9 |
| 20260510183145 | 61 | 135 | 1.0 | 3.0 | 0.00 | 0.00 | 0.00 | 95 | 1017.0 |
| 20260510182419 | 60 | 111 | 1.0 | 4.0 | 0.00 | 0.00 | 0.00 | 96 | 1017.0 |
| 20260510181920 | 60 | 128 | 2.0 | 4.0 | 0.00 | 0.00 | 0.00 | 96 | 1016.9 |
| 20260510181420 | 60 | 134 | 2.0 | 4.0 | 0.00 | 0.00 | 0.00 | 96 | 1016.9 |
| 20260510180919 | 60 | 137 | 1.0 | 4.0 | 0.00 | 0.00 | 0.00 | 96 | 1016.8 |
| 20260510180419 | 59 | 135 | 1.0 | 4.0 | 0.00 | 0.00 | 0.00 | 96 | 1016.7 |
| 20260510175920 | 59 | 135 | 1.0 | 3.0 | 0.00 | 0.00 | 0.00 | 97 | 1016.7 |
| 20260510175420 | 59 | 135 | 2.0 | 3.0 | 0.00 | 0.00 | 0.00 | 97 | 1016.7 |
| 20260510174919 | 59 | 133 | 2.0 | 3.0 | 0.00 | 0.00 | 0.00 | 97 | 1016.7 |
| 20260510174419 | 59 | 134 | 1.0 | 3.0 | 0.00 | 0.00 | 0.00 | 96 | 1016.7 |
| 20260510173919 | 59 | 134 | 1.0 | 4.0 | 0.00 | 0.00 | 0.00 | 97 | 1016.8 |
| 20260510173418 | 58 | 134 | 0.0 | 4.0 | 0.00 | 0.00 | 0.00 | 97 | 1016.7 |
| 20260510172919 | 58 | 131 | 1.0 | 4.0 | 0.00 | 0.00 | 0.00 | 97 | 1016.6 |
| 20260510172417 | 58 | 137 | 0.0 | 4.0 | 0.00 | 0.00 | 0.00 | 97 | 1016.6 |
| 20260510171918 | 58 | 144 | 1.0 | 4.0 | 0.00 | 0.00 | 0.00 | 97 | 1016.5 |
| 20260510171642 | 58 | 131 | 0.0 | 3.0 | 0.00 | 0.00 | 0.00 | 97 | 1016.4 |
| 20260510170918 | 58 | 131 | 1.0 | 3.0 | 0.00 | 0.00 | 0.00 | 97 | 1016.4 |
| 20260510170417 | 58 | 133 | 1.0 | 4.0 | 0.00 | 0.00 | 0.00 | 97 | 1016.3 |
| 20260510165917 | 58 | 131 | 1.0 | 4.0 | 0.00 | 0.00 | 0.00 | 97 | 1016.2 |
| 20260510165417 | 57 | 135 | 0.0 | 4.0 | 0.00 | 0.00 | 0.00 | 97 | 1016.2 |
| 20260510164919 | 57 | 138 | 2.0 | 4.0 | 0.00 | 0.00 | 0.00 | 97 | 1016.2 |
| 20260510164417 | 57 | 141 | 2.0 | 5.0 | 0.00 | 0.00 | 0.00 | 97 | 1016.2 |
| 20260510163918 | 56 | 176 | 2.0 | 5.0 | 0.00 | 0.00 | 0.00 | 97 | 1016.2 |
| 20260510163647 | 56 | 166 | 3.0 | 5.0 | 0.00 | 0.00 | 0.00 | 97 | 1016.2 |
| 20260510162918 | 56 | 148 | 2.0 | 4.0 | 0.00 | 0.00 | 0.00 | 97 | 1016.2 |
| 20260510162418 | 56 | 142 | 0.0 | 5.0 | 0.00 | 0.00 | 0.00 | 97 | 1016.2 |
| 20260510161918 | 56 | 168 | 3.0 | 5.0 | 0.00 | 0.00 | 0.00 | 97 | 1016.2 |
| 20260510161416 | 56 | 186 | 2.0 | 5.0 | 0.00 | 0.00 | 0.00 | 97 | 1016.3 |
| 20260510160916 | 56 | 193 | 2.0 | 5.0 | 0.00 | 0.00 | 0.00 | 96 | 1016.2 |
| 20260510160416 | 56 | 224 | 1.0 | 5.0 | 0.00 | 0.00 | 0.00 | 97 | 1016.1 |
| 20260510155917 | 56 | 224 | 2.0 | 5.0 | 0.00 | 0.00 | 0.00 | 97 | 1016.1 |
| 20260510155415 | 55 | 224 | 3.0 | 4.0 | 0.00 | 0.00 | 0.00 | 96 | 1016.2 |
| 20260510154916 | 55 | 200 | 2.0 | 4.0 | 0.00 | 0.00 | 0.00 | 96 | 1016.2 |
| 20260510154416 | 55 | 199 | 2.0 | 5.0 | 0.00 | 0.00 | 0.00 | 96 | 1016.0 |
| 20260510154142 | 55 | 206 | 4.0 | 5.0 | 0.00 | 0.00 | 0.00 | 96 | 1015.9 |
| 20260510153415 | 55 | 179 | 2.0 | 5.0 | 0.00 | 0.00 | 0.00 | 96 | 1015.9 |
| 20260510152916 | 55 | 178 | 2.0 | 5.0 | 0.00 | 0.00 | 0.00 | 96 | 1015.9 |
| 20260510152414 | 55 | 175 | 3.0 | 5.0 | 0.00 | 0.00 | 0.00 | 96 | 1015.8 |
| 20260510151916 | 55 | 166 | 2.0 | 4.0 | 0.00 | 0.00 | 0.00 | 96 | 1015.9 |
| 20260510151414 | 55 | 166 | 3.0 | 4.0 | 0.00 | 0.00 | 0.00 | 96 | 1015.8 |
| 20260510151135 | 54 | 75 | 0.0 | 4.0 | 0.00 | 0.00 | 0.00 | 96 | 1015.8 |
| 20260510150414 | 54 | 59 | 2.0 | 4.0 | 0.00 | 0.00 | 0.00 | 96 | 1015.9 |
| 20260510145915 | 54 | 56 | 1.0 | 3.0 | 0.00 | 0.00 | 0.00 | 96 | 1015.8 |
| 20260510145414 | 54 | 56 | 0.0 | 2.0 | 0.00 | 0.00 | 0.00 | 96 | 1015.9 |
| 20260510144913 | 54 | 56 | 1.0 | 2.0 | 0.00 | 0.00 | 0.00 | 96 | 1015.8 |
| 20260510144414 | 54 | 56 | 0.0 | 2.0 | 0.00 | 0.00 | 0.00 | 96 | 1015.7 |
| 20260510143915 | 54 | 56 | 1.0 | 2.0 | 0.00 | 0.00 | 0.00 | 96 | 1015.7 |
| 20260510143415 | 54 | 56 | 1.0 | 3.0 | 0.00 | 0.00 | 0.00 | 96 | 1015.7 |
| 20260510142914 | 54 | 56 | 0.0 | 4.0 | 0.00 | 0.00 | 0.00 | 96 | 1015.7 |
| 20260510142415 | 54 | 56 | 2.0 | 4.0 | 0.00 | 0.00 | 0.00 | 96 | 1015.7 |
| 20260510141913 | 54 | 56 | 2.0 | 4.0 | 0.00 | 0.00 | 0.00 | 96 | 1015.7 |
| 20260510141413 | 54 | 55 | 4.0 | 5.0 | 0.00 | 0.00 | 0.00 | 96 | 1015.5 |
| 20260510140914 | 54 | 59 | 3.0 | 5.0 | 0.00 | 0.00 | 0.00 | 96 | 1015.5 |
| 20260510140413 | 54 | 58 | 3.0 | 4.0 | 0.00 | 0.00 | 0.00 | 96 | 1015.5 |
| 20260510135914 | 54 | 58 | 1.0 | 5.0 | 0.00 | 0.00 | 0.00 | 96 | 1015.5 |
| 20260510135636 | 54 | 58 | 2.0 | 5.0 | 0.00 | 0.00 | 0.00 | 96 | 1015.5 |
| 20260510134912 | 53 | 48 | 3.0 | 6.0 | 0.00 | 0.00 | 0.00 | 96 | 1015.4 |
| 20260510134904 | 53 | 47 | 2.0 | 6.0 | 0.00 | 0.00 | 0.00 | 96 | 1015.4 |
| 20260510133912 | 53 | 24 | 2.0 | 9.0 | 0.00 | 0.00 | 0.00 | 96 | 1015.4 |
| 20260510133414 | 53 | 48 | 4.0 | 9.0 | 0.00 | 0.00 | 0.00 | 95 | 1015.3 |
| 20260510132912 | 53 | 28 | 3.0 | 6.0 | 0.00 | 0.00 | 0.00 | 95 | 1015.3 |
| 20260510132413 | 53 | 66 | 2.0 | 6.0 | 0.00 | 0.00 | 0.00 | 95 | 1015.4 |
| 20260510131911 | 53 | 39 | 1.0 | 5.0 | 0.00 | 0.00 | 0.00 | 95 | 1015.4 |
| 20260510131412 | 53 | 312 | 1.0 | 5.0 | 0.00 | 0.00 | 0.00 | 95 | 1015.3 |
| 20260510130912 | 53 | 0 | 1.0 | 4.0 | 0.00 | 0.00 | 0.00 | 95 | 1015.2 |
| 20260510130413 | 52 | 305 | 2.0 | 4.0 | 0.00 | 0.00 | 0.00 | 95 | 1015.2 |
| 20260510125911 | 52 | 345 | 1.0 | 5.0 | 0.00 | 0.00 | 0.00 | 95 | 1015.2 |
| 20260510125412 | 52 | 45 | 1.0 | 5.0 | 0.00 | 0.00 | 0.00 | 94 | 1015.2 |
| 20260510124912 | 52 | 39 | 2.0 | 4.0 | 0.00 | 0.00 | 0.00 | 94 | 1015.1 |
| 20260510124412 | 53 | 82 | 3.0 | 4.0 | 0.00 | 0.00 | 0.00 | 94 | 1015.1 |
| 20260510123911 | 53 | 85 | 2.0 | 3.0 | 0.00 | 0.00 | 0.00 | 94 | 1015.0 |
| 20260510123635 | 53 | 85 | 1.0 | 3.0 | 0.00 | 0.00 | 0.00 | 94 | 1015.0 |
| 20260510122912 | 53 | 85 | 1.0 | 3.0 | 0.00 | 0.00 | 0.00 | 94 | 1014.8 |
| 20260510122413 | 53 | 83 | 0.0 | 0.0 | 0.00 | 0.00 | 0.00 | 94 | 1014.7 |
| 20260510121911 | 53 | 83 | 0.0 | 0.0 | 0.00 | 0.00 | 0.00 | 94 | 1014.7 |
| 20260510121857 | 53 | 83 | 0.0 | 0.0 | 0.00 | 0.00 | 0.00 | 94 | 1014.7 |
| 20260510120912 | 53 | 83 | 0.0 | 0.0 | 0.00 | 0.00 | 0.00 | 94 | 1014.6 |
| 20260510120413 | 53 | 83 | 0.0 | 0.0 | 0.00 | 0.00 | 0.00 | 94 | 1014.6 |
| 20260510115911 | 53 | 83 | 0.0 | 0.0 | 0.00 | 0.00 | 0.00 | 94 | 1014.6 |
| 20260510115411 | 53 | 83 | 0.0 | 0.0 | 0.00 | 0.00 | 0.00 | 94 | 1014.6 |
| 20260510114910 | 54 | 83 | 0.0 | 0.0 | 0.00 | 0.00 | 0.00 | 94 | 1014.5 |
| 20260510114410 | 54 | 83 | 0.0 | 0.0 | 0.00 | 0.00 | 0.00 | 93 | 1014.5 |
| 20260510113909 | 54 | 83 | 0.0 | 0.0 | 0.00 | 0.00 | 0.00 | 93 | 1014.4 |
| 20260510113409 | 54 | 83 | 0.0 | 0.0 | 0.00 | 0.00 | 0.00 | 93 | 1014.5 |
| 20260510112910 | 54 | 83 | 0.0 | 0.0 | 0.00 | 0.00 | 0.00 | 93 | 1014.5 |
| 20260510112409 | 54 | 83 | 0.0 | 0.0 | 0.00 | 0.00 | 0.00 | 93 | 1014.5 |
| 20260510111910 | 54 | 83 | 0.0 | 0.0 | 0.00 | 0.00 | 0.00 | 93 | 1014.5 |
| 20260510111410 | 54 | 83 | 0.0 | 0.0 | 0.00 | 0.00 | 0.00 | 93 | 1014.6 |
| 20260510110909 | 54 | 83 | 0.0 | 0.0 | 0.00 | 0.00 | 0.00 | 93 | 1014.6 |
| 20260510110409 | 54 | 83 | 0.0 | 0.0 | 0.00 | 0.00 | 0.00 | 93 | 1014.6 |
| 20260510105910 | 54 | 83 | 0.0 | 0.0 | 0.00 | 0.00 | 0.00 | 92 | 1014.5 |
| 20260510105408 | 54 | 83 | 0.0 | 0.0 | 0.00 | 0.00 | 0.00 | 92 | 1014.5 |
| 20260510104908 | 54 | 83 | 0.0 | 0.0 | 0.00 | 0.00 | 0.00 | 92 | 1014.5 |
| 20260510104408 | 54 | 83 | 0.0 | 0.0 | 0.00 | 0.00 | 0.00 | 92 | 1014.5 |
| 20260510103909 | 54 | 83 | 0.0 | 0.0 | 0.00 | 0.00 | 0.00 | 92 | 1014.5 |
| 20260510103408 | 55 | 83 | 0.0 | 0.0 | 0.00 | 0.00 | 0.00 | 92 | 1014.4 |
| 20260510102908 | 55 | 83 | 0.0 | 0.0 | 0.00 | 0.00 | 0.00 | 92 | 1014.3 |
| 20260510102407 | 55 | 83 | 0.0 | 0.0 | 0.00 | 0.00 | 0.00 | 92 | 1014.2 |
| 20260510101911 | 55 | 83 | 0.0 | 0.0 | 0.00 | 0.00 | 0.00 | 92 | 1014.3 |
| 20260510101631 | 56 | 83 | 0.0 | 0.0 | 0.00 | 0.00 | 0.00 | 92 | 1014.3 |
| 20260510100910 | 56 | 83 | 0.0 | 0.0 | 0.00 | 0.00 | 0.00 | 92 | 1014.2 |
| 20260510100408 | 56 | 83 | 0.0 | 0.0 | 0.00 | 0.00 | 0.00 | 92 | 1014.2 |
| 20260510095909 | 56 | 83 | 0.0 | 0.0 | 0.00 | 0.00 | 0.00 | 92 | 1014.2 |
| 20260510095407 | 56 | 83 | 0.0 | 0.0 | 0.00 | 0.00 | 0.00 | 92 | 1014.2 |
| 20260510094908 | 56 | 83 | 0.0 | 1.0 | 0.00 | 0.00 | 0.00 | 92 | 1014.3 |
| 20260510094407 | 56 | 83 | 0.0 | 2.0 | 0.00 | 0.00 | 0.00 | 92 | 1014.4 |
| 20260510093908 | 56 | 83 | 0.0 | 2.0 | 0.00 | 0.00 | 0.00 | 92 | 1014.3 |
| 20260510093628 | 56 | 83 | 1.0 | 2.0 | 0.00 | 0.00 | 0.00 | 92 | 1014.4 |
| 20260510092908 | 56 | 83 | 2.0 | 2.0 | 0.00 | 0.00 | 0.00 | 92 | 1014.4 |
| 20260510092855 | 56 | 83 | 0.0 | 0.0 | 0.00 | 0.00 | 0.00 | 92 | 1014.5 |
| 20260510091908 | 57 | 83 | 0.0 | 0.0 | 0.00 | 0.00 | 0.00 | 92 | 1014.4 |
| 20260510091407 | 57 | 83 | 0.0 | 1.0 | 0.00 | 0.00 | 0.00 | 92 | 1014.4 |
| 20260510090909 | 57 | 83 | 0.0 | 1.0 | 0.00 | 0.00 | 0.00 | 92 | 1014.4 |
| 20260510090407 | 57 | 83 | 0.0 | 1.0 | 0.00 | 0.00 | 0.00 | 92 | 1014.4 |
| 20260510085908 | 57 | 83 | 0.0 | 0.0 | 0.00 | 0.00 | 0.00 | 92 | 1014.4 |
| 20260510085407 | 56 | 83 | 0.0 | 1.0 | 0.00 | 0.00 | 0.00 | 92 | 1014.4 |
| 20260510084908 | 56 | 83 | 0.0 | 2.0 | 0.00 | 0.00 | 0.00 | 92 | 1014.5 |
| 20260510084629 | 56 | 83 | 2.0 | 3.0 | 0.00 | 0.00 | 0.00 | 91 | 1014.6 |
| 20260510084610 | 56 | 83 | 1.0 | 3.0 | 0.00 | 0.00 | 0.00 | 91 | 1014.6 |
| 20260510083406 | 56 | 83 | 0.0 | 0.0 | 0.00 | 0.00 | 0.00 | 92 | 1014.6 |
| 20260510082907 | 56 | 83 | 0.0 | 0.0 | 0.00 | 0.00 | 0.00 | 91 | 1014.7 |
| 20260510082405 | 56 | 85 | 0.0 | 0.0 | 0.00 | 0.00 | 0.00 | 91 | 1014.7 |
| 20260510081906 | 56 | 85 | 0.0 | 0.0 | 0.00 | 0.00 | 0.00 | 91 | 1014.7 |
| 20260510081405 | 56 | 85 | 0.0 | 0.0 | 0.00 | 0.00 | 0.00 | 90 | 1014.7 |
| 20260510081136 | 56 | 85 | 0.0 | 0.0 | 0.00 | 0.00 | 0.00 | 90 | 1014.8 |
| 20260510080405 | 57 | 85 | 0.0 | 0.0 | 0.00 | 0.00 | 0.00 | 90 | 1014.9 |
| 20260510075904 | 57 | 85 | 0.0 | 0.0 | 0.00 | 0.00 | 0.00 | 90 | 1014.8 |
| 20260510075404 | 57 | 85 | 0.0 | 0.0 | 0.00 | 0.00 | 0.00 | 91 | 1014.8 |
| 20260510075121 | 57 | 85 | 0.0 | 0.0 | 0.00 | 0.00 | 0.00 | 91 | 1014.8 |
| 20260510074405 | 57 | 85 | 0.0 | 0.0 | 0.00 | 0.00 | 0.00 | 91 | 1014.8 |
| 20260510073904 | 57 | 85 | 0.0 | 0.0 | 0.00 | 0.00 | 0.00 | 90 | 1014.8 |
| 20260510073403 | 57 | 85 | 0.0 | 0.0 | 0.00 | 0.00 | 0.00 | 90 | 1014.7 |
| 20260510072904 | 57 | 85 | 0.0 | 0.0 | 0.00 | 0.00 | 0.00 | 90 | 1014.7 |
| 20260510072404 | 57 | 85 | 0.0 | 0.0 | 0.00 | 0.00 | 0.00 | 90 | 1014.7 |
| 20260510071904 | 57 | 85 | 0.0 | 0.0 | 0.00 | 0.00 | 0.00 | 89 | 1014.7 |
| 20260510071404 | 57 | 85 | 0.0 | 0.0 | 0.00 | 0.00 | 0.00 | 89 | 1014.7 |
| 20260510070903 | 57 | 85 | 0.0 | 0.0 | 0.00 | 0.00 | 0.00 | 89 | 1014.7 |
| 20260510070403 | 58 | 85 | 0.0 | 0.0 | 0.00 | 0.00 | 0.00 | 89 | 1014.8 |
| 20260510065903 | 58 | 85 | 0.0 | 0.0 | 0.00 | 0.00 | 0.00 | 89 | 1014.8 |
| 20260510065402 | 58 | 85 | 0.0 | 0.0 | 0.00 | 0.00 | 0.00 | 89 | 1014.8 |
| 20260510064904 | 58 | 85 | 0.0 | 0.0 | 0.00 | 0.00 | 0.00 | 89 | 1014.9 |
| 20260510064404 | 58 | 85 | 0.0 | 0.0 | 0.00 | 0.00 | 0.00 | 89 | 1014.8 |
| 20260510063903 | 58 | 85 | 0.0 | 0.0 | 0.00 | 0.00 | 0.00 | 89 | 1014.8 |
| 20260510063404 | 58 | 85 | 0.0 | 0.0 | 0.00 | 0.00 | 0.00 | 89 | 1014.7 |
| 20260510062903 | 58 | 85 | 0.0 | 0.0 | 0.00 | 0.00 | 0.00 | 89 | 1014.7 |
| 20260510062404 | 58 | 85 | 0.0 | 0.0 | 0.00 | 0.00 | 0.00 | 88 | 1014.7 |
| 20260510061902 | 58 | 85 | 0.0 | 0.0 | 0.00 | 0.00 | 0.00 | 89 | 1014.7 |
| 20260510061625 | 58 | 85 | 0.0 | 0.0 | 0.00 | 0.00 | 0.00 | 89 | 1014.6 |
| 20260510060903 | 58 | 85 | 0.0 | 0.0 | 0.00 | 0.00 | 0.00 | 89 | 1014.5 |
| 20260510060404 | 58 | 85 | 0.0 | 0.0 | 0.00 | 0.00 | 0.00 | 89 | 1014.5 |
| 20260510060129 | 58 | 85 | 0.0 | 2.0 | 0.00 | 0.00 | 0.00 | 89 | 1014.6 |
| 20260510055403 | 58 | 85 | 1.0 | 2.0 | 0.00 | 0.00 | 0.00 | 89 | 1014.6 |
| 20260510054903 | 58 | 85 | 0.0 | 2.0 | 0.00 | 0.00 | 0.00 | 88 | 1014.6 |
| 20260510054403 | 58 | 85 | 0.0 | 2.0 | 0.00 | 0.00 | 0.00 | 88 | 1014.6 |
| 20260510053902 | 58 | 85 | 1.0 | 2.0 | 0.00 | 0.00 | 0.00 | 88 | 1014.7 |
| 20260510053403 | 58 | 85 | 1.0 | 2.0 | 0.00 | 0.00 | 0.00 | 88 | 1014.7 |
| 20260510052902 | 58 | 85 | 0.0 | 0.0 | 0.00 | 0.00 | 0.00 | 87 | 1014.7 |
| 20260510052403 | 58 | 85 | 0.0 | 1.0 | 0.00 | 0.00 | 0.00 | 87 | 1014.7 |
| 20260510052124 | 59 | 85 | 0.0 | 1.0 | 0.00 | 0.00 | 0.00 | 87 | 1014.7 |
| 20260510051402 | 59 | 85 | 0.0 | 0.0 | 0.00 | 0.00 | 0.00 | 87 | 1014.6 |
| 20260510050903 | 59 | 85 | 0.0 | 0.0 | 0.00 | 0.00 | 0.00 | 87 | 1014.7 |
| 20260510050621 | 59 | 85 | 0.0 | 0.0 | 0.00 | 0.00 | 0.00 | 87 | 1014.6 |
| 20260510045902 | 59 | 85 | 0.0 | 0.0 | 0.00 | 0.00 | 0.00 | 87 | 1014.6 |
| 20260510045621 | 59 | 85 | 0.0 | 1.0 | 0.00 | 0.00 | 0.00 | 87 | 1014.5 |
| 20260510044903 | 59 | 85 | 0.0 | 1.0 | 0.00 | 0.00 | 0.00 | 87 | 1014.5 |
| 20260510044403 | 59 | 85 | 0.0 | 0.0 | 0.00 | 0.00 | 0.00 | 87 | 1014.4 |
| 20260510044124 | 59 | 85 | 0.0 | 0.0 | 0.00 | 0.00 | 0.00 | 86 | 1014.5 |
| 20260510043403 | 59 | 85 | 0.0 | 0.0 | 0.00 | 0.00 | 0.00 | 86 | 1014.6 |
| 20260510042903 | 59 | 85 | 0.0 | 0.0 | 0.00 | 0.00 | 0.00 | 86 | 1014.6 |
| 20260510042402 | 59 | 85 | 0.0 | 0.0 | 0.00 | 0.00 | 0.00 | 85 | 1014.5 |
| 20260510041904 | 59 | 85 | 0.0 | 0.0 | 0.00 | 0.00 | 0.00 | 85 | 1014.5 |
| 20260510041402 | 59 | 85 | 0.0 | 0.0 | 0.00 | 0.00 | 0.00 | 85 | 1014.4 |
| 20260510040904 | 60 | 85 | 0.0 | 0.0 | 0.00 | 0.00 | 0.00 | 85 | 1014.4 |
| 20260510040402 | 60 | 85 | 0.0 | 0.0 | 0.00 | 0.00 | 0.00 | 85 | 1014.3 |
| 20260510035903 | 60 | 85 | 0.0 | 0.0 | 0.00 | 0.00 | 0.00 | 84 | 1014.2 |
| 20260510035403 | 60 | 85 | 0.0 | 0.0 | 0.00 | 0.00 | 0.00 | 84 | 1014.2 |
| 20260510035128 | 60 | 85 | 0.0 | 0.0 | 0.00 | 0.00 | 0.00 | 84 | 1014.2 |
| 20260510034402 | 60 | 85 | 0.0 | 0.0 | 0.00 | 0.00 | 0.00 | 84 | 1014.1 |
| 20260510033903 | 60 | 85 | 0.0 | 2.0 | 0.00 | 0.00 | 0.00 | 84 | 1014.1 |
| 20260510033401 | 60 | 85 | 0.0 | 2.0 | 0.00 | 0.00 | 0.00 | 84 | 1014.0 |
| 20260510032903 | 60 | 85 | 0.0 | 0.0 | 0.00 | 0.00 | 0.00 | 83 | 1013.9 |
| 20260510032402 | 60 | 85 | 0.0 | 0.0 | 0.00 | 0.00 | 0.00 | 83 | 1013.9 |
| 20260510031903 | 61 | 85 | 0.0 | 1.0 | 0.00 | 0.00 | 0.00 | 82 | 1013.8 |
| 20260510031624 | 61 | 85 | 0.0 | 1.0 | 0.00 | 0.00 | 0.00 | 82 | 1013.8 |
| 20260510030903 | 61 | 85 | 0.0 | 1.0 | 0.00 | 0.00 | 0.00 | 81 | 1013.9 |
| 20260510030402 | 61 | 85 | 0.0 | 3.0 | 0.00 | 0.00 | 0.00 | 80 | 1013.9 |
| 20260510025903 | 62 | 85 | 1.0 | 3.0 | 0.00 | 0.00 | 0.00 | 80 | 1013.9 |
| 20260510025402 | 62 | 85 | 1.0 | 2.0 | 0.00 | 0.00 | 0.00 | 79 | 1013.8 |
| 20260510024903 | 63 | 85 | 0.0 | 2.0 | 0.00 | 0.00 | 0.00 | 78 | 1013.8 |
| 20260510024850 | 63 | 85 | 1.0 | 2.0 | 0.00 | 0.00 | 0.00 | 78 | 1013.8 |
| 20260510023903 | 63 | 155 | 1.0 | 2.0 | 0.00 | 0.00 | 0.00 | 77 | 1013.7 |
| 20260510023402 | 64 | 155 | 2.0 | 2.0 | 0.00 | 0.00 | 0.00 | 77 | 1013.6 |
| 20260510022904 | 64 | 155 | 0.0 | 2.0 | 0.00 | 0.00 | 0.00 | 78 | 1013.7 |
| 20260510022402 | 64 | 138 | 0.0 | 2.0 | 0.00 | 0.00 | 0.00 | 78 | 1013.7 |
| 20260510022127 | 64 | 107 | 0.0 | 2.0 | 0.00 | 0.00 | 0.00 | 77 | 1013.6 |
| 20260510021403 | 64 | 107 | 1.0 | 3.0 | 0.00 | 0.00 | 0.00 | 77 | 1013.6 |
| 20260510020902 | 64 | 107 | 1.0 | 3.0 | 0.00 | 0.00 | 0.00 | 76 | 1013.7 |
| 20260510020402 | 64 | 107 | 2.0 | 2.0 | 0.00 | 0.00 | 0.00 | 76 | 1013.7 |
| 20260510015902 | 64 | 107 | 1.0 | 2.0 | 0.00 | 0.00 | 0.00 | 76 | 1013.8 |
| 20260510015402 | 65 | 107 | 1.0 | 2.0 | 0.00 | 0.00 | 0.00 | 75 | 1013.9 |
| 20260510014902 | 65 | 107 | 1.0 | 2.0 | 0.00 | 0.00 | 0.00 | 75 | 1013.9 |
| 20260510014402 | 65 | 107 | 0.0 | 3.0 | 0.00 | 0.00 | 0.00 | 74 | 1014.0 |
| 20260510014124 | 65 | 107 | 1.0 | 3.0 | 0.00 | 0.00 | 0.00 | 74 | 1013.9 |
| 20260510013403 | 65 | 107 | 1.0 | 3.0 | 0.00 | 0.00 | 0.00 | 73 | 1014.0 |
| 20260510012902 | 66 | 107 | 2.0 | 3.0 | 0.00 | 0.00 | 0.00 | 73 | 1014.0 |
| 20260510012402 | 66 | 107 | 1.0 | 3.0 | 0.00 | 0.00 | 0.00 | 72 | 1014.0 |
| 20260510011901 | 67 | 107 | 2.0 | 3.0 | 0.00 | 0.00 | 0.00 | 72 | 1014.0 |
| 20260510011402 | 67 | 107 | 2.0 | 3.0 | 0.00 | 0.00 | 0.00 | 72 | 1013.9 |
| 20260510010903 | 67 | 107 | 1.0 | 3.0 | 0.00 | 0.00 | 0.00 | 71 | 1014.0 |
| 20260510010403 | 67 | 107 | 2.0 | 4.0 | 0.00 | 0.00 | 0.00 | 70 | 1014.0 |
| 20260510005901 | 68 | 109 | 2.0 | 4.0 | 0.00 | 0.00 | 0.00 | 69 | 1014.1 |
| 20260510005401 | 69 | 110 | 2.0 | 3.0 | 0.00 | 0.00 | 0.00 | 70 | 1014.1 |
| 20260510004901 | 69 | 110 | 1.0 | 4.0 | 0.00 | 0.00 | 0.00 | 70 | 1014.2 |
| 20260510004356 | 69 | 110 | 2.0 | 4.0 | 0.00 | 0.00 | 0.00 | 69 | 1014.4 |
| 20260510003857 | 69 | 116 | 2.0 | 4.0 | 0.00 | 0.00 | 0.00 | 69 | 1014.4 |
| 20260510003355 | 69 | 116 | 2.0 | 4.0 | 0.00 | 0.00 | 0.00 | 70 | 1014.4 |
| 20260510002856 | 69 | 116 | 1.0 | 3.0 | 0.00 | 0.00 | 0.00 | 70 | 1014.5 |
| 20260510002354 | 69 | 116 | 1.0 | 4.0 | 0.00 | 0.00 | 0.00 | 70 | 1014.4 |
| 20260510002343 | 69 | 116 | 2.0 | 4.0 | 0.00 | 0.00 | 0.00 | 70 | 1014.5 |
| 20260510001356 | 69 | 100 | 3.0 | 5.0 | 0.00 | 0.00 | 0.00 | 70 | 1014.5 |
| 20260510000856 | 69 | 92 | 3.0 | 5.0 | 0.00 | 0.00 | 0.00 | 70 | 1014.5 |
| 20260510000615 | 69 | 107 | 2.0 | 5.0 | 0.00 | 0.00 | 0.00 | 70 | 1014.6 |
| 20260509235854 | 69 | 111 | 2.0 | 5.0 | 0.00 | 0.00 | 0.00 | 70 | 1014.5 |
| 20260509235613 | 69 | 118 | 2.0 | 5.0 | 0.00 | 0.00 | 0.00 | 70 | 1014.5 |
| 20260509234854 | 69 | 120 | 2.0 | 5.0 | 0.00 | 0.00 | 0.00 | 70 | 1014.5 |
| 20260509234354 | 69 | 103 | 2.0 | 5.0 | 0.00 | 0.00 | 0.00 | 70 | 1014.5 |
| 20260509233854 | 69 | 114 | 2.0 | 5.0 | 0.00 | 0.00 | 0.00 | 70 | 1014.6 |
| 20260509233621 | 68 | 103 | 2.0 | 5.0 | 0.00 | 0.00 | 0.00 | 71 | 1014.7 |
| 20260509232854 | 68 | 114 | 2.0 | 4.0 | 0.00 | 0.00 | 0.00 | 71 | 1014.7 |
| 20260509232613 | 68 | 109 | 2.0 | 4.0 | 0.00 | 0.00 | 0.00 | 71 | 1014.7 |
| 20260509231855 | 68 | 107 | 3.0 | 5.0 | 0.00 | 0.00 | 0.00 | 71 | 1014.8 |
| 20260509231353 | 68 | 96 | 3.0 | 5.0 | 0.00 | 0.00 | 0.00 | 71 | 1014.8 |
| 20260509230854 | 68 | 118 | 2.0 | 4.0 | 0.00 | 0.00 | 0.00 | 70 | 1014.8 |
| 20260509230353 | 69 | 128 | 3.0 | 4.0 | 0.00 | 0.00 | 0.00 | 70 | 1014.8 |
| 20260509225854 | 69 | 130 | 3.0 | 6.0 | 0.00 | 0.00 | 0.00 | 70 | 1014.9 |
| 20260509225354 | 69 | 90 | 3.0 | 6.0 | 0.00 | 0.00 | 0.00 | 70 | 1014.9 |
| 20260509224854 | 69 | 130 | 2.0 | 4.0 | 0.00 | 0.00 | 0.00 | 70 | 1015.0 |
| 20260509224352 | 69 | 135 | 2.0 | 5.0 | 0.00 | 0.00 | 0.00 | 70 | 1015.0 |
| 20260509223853 | 69 | 94 | 3.0 | 5.0 | 0.00 | 0.00 | 0.00 | 70 | 1015.2 |
| 20260509223610 | 69 | 120 | 3.0 | 5.0 | 0.00 | 0.00 | 0.00 | 70 | 1015.2 |
| 20260509222853 | 69 | 96 | 2.0 | 5.0 | 0.00 | 0.00 | 0.00 | 71 | 1015.3 |
| 20260509222351 | 69 | 124 | 3.0 | 5.0 | 0.00 | 0.00 | 0.00 | 71 | 1015.3 |
| 20260509221852 | 69 | 131 | 3.0 | 5.0 | 0.00 | 0.00 | 0.00 | 71 | 1015.4 |
| 20260509221351 | 69 | 123 | 3.0 | 7.0 | 0.00 | 0.00 | 0.00 | 71 | 1015.4 |
| 20260509221113 | 69 | 135 | 3.0 | 7.0 | 0.00 | 0.00 | 0.00 | 70 | 1015.5 |
| 20260509220351 | 69 | 109 | 3.0 | 6.0 | 0.00 | 0.00 | 0.00 | 71 | 1015.5 |
| 20260509220113 | 69 | 89 | 3.0 | 5.0 | 0.00 | 0.00 | 0.00 | 71 | 1015.5 |